TimeCET,TemperatureF,Dew PointF,Humidity,Sea Level PressureIn,VisibilityMPH,Wind Direction,Wind SpeedMPH,Gust SpeedMPH,PrecipitationIn,Events,Conditions,WindDirDegrees,DateUTC
1:00 AM,43,36,68,30.03,9,Calm,Calm,,,,Clear,,2013-02-18 00:00:00
6:00 AM,41.0,41.0,100,29.95,6.2,Variable,1.2,-,N/A,,Scattered Clouds,0,2013-02-18 05:00:00
6:30 AM,41.0,41.0,100,29.95,6.2,SSE,3.5,-,N/A,,Scattered Clouds,160,2013-02-18 05:30:00
7:00 AM,41,37,79,29.98,7,Calm,Calm,,,,Partly Cloudy,,2013-02-18 06:00:00
7:00 AM,41.0,41.0,100,29.92,6.2,Calm,Calm,-,N/A,,Mostly Cloudy,0,2013-02-18 06:00:00
7:30 AM,41.0,41.0,100,29.92,6.2,Calm,Calm,-,N/A,,Scattered Clouds,0,2013-02-18 06:30:00
8:00 AM,42.8,41.0,93,29.92,6.2,Calm,Calm,-,N/A,,Scattered Clouds,0,2013-02-18 07:00:00
8:30 AM,42.8,41.0,93,29.95,6.2,Variable,1.2,-,N/A,,Scattered Clouds,0,2013-02-18 07:30:00
9:00 AM,44.6,42.8,93,29.95,5.0,Variable,1.2,-,N/A,,Scattered Clouds,0,2013-02-18 08:00:00
9:30 AM,46.4,42.8,87,29.95,6.2,Variable,1.2,-,N/A,,Scattered Clouds,0,2013-02-18 08:30:00
10:00 AM,46.4,42.8,87,29.95,6.2,Calm,Calm,-,N/A,,Scattered Clouds,0,2013-02-18 09:00:00
10:30 AM,50.0,44.6,82,29.95,6.2,Calm,Calm,-,N/A,,Scattered Clouds,0,2013-02-18 09:30:00
11:00 AM,51.8,44.6,76,29.92,6.2,Variable,1.2,-,N/A,,Scattered Clouds,0,2013-02-18 10:00:00
11:30 AM,55.4,44.6,67,29.92,6.2,Calm,Calm,-,N/A,,Scattered Clouds,0,2013-02-18 10:30:00
12:00 PM,55.4,46.4,72,29.92,6.2,Variable,1.2,-,N/A,,Scattered Clouds,0,2013-02-18 11:00:00
12:30 PM,55.4,44.6,67,29.92,6.2,Calm,Calm,-,N/A,,Scattered Clouds,0,2013-02-18 11:30:00
1:00 PM,57,43,48,29.90,16,Calm,Calm,,,,Overcast,,2013-02-18 12:00:00
1:00 PM,57.2,46.4,67,29.92,6.2,Calm,Calm,-,N/A,,Scattered Clouds,0,2013-02-18 12:00:00
1:30 PM,57.2,48.2,72,29.89,6.2,Calm,Calm,-,N/A,,Scattered Clouds,0,2013-02-18 12:30:00
2:00 PM,59.0,46.4,63,29.89,6.2,Variable,1.2,-,N/A,,Scattered Clouds,0,2013-02-18 13:00:00
2:30 PM,59.0,46.4,63,29.86,6.2,Variable,1.2,-,N/A,,Scattered Clouds,0,2013-02-18 13:30:00
3:00 PM,60.8,46.4,59,29.86,6.2,Variable,1.2,-,N/A,,Mostly Cloudy,0,2013-02-18 14:00:00
3:30 PM,59.0,46.4,63,29.86,6.2,Calm,Calm,-,N/A,,Mostly Cloudy,0,2013-02-18 14:30:00
4:00 PM,60.8,50.0,68,29.83,6.2,Variable,2.3,-,N/A,,Mostly Cloudy,0,2013-02-18 15:00:00
4:30 PM,60.8,48.2,63,29.83,6.2,ESE,5.8,-,N/A,,Mostly Cloudy,120,2013-02-18 15:30:00
5:00 PM,60.8,50.0,68,29.80,6.2,ESE,5.8,-,N/A,,Mostly Cloudy,110,2013-02-18 16:00:00
5:30 PM,60.8,48.2,63,29.80,6.2,SE,6.9,-,N/A,,Scattered Clouds,140,2013-02-18 16:30:00
6:00 PM,60.8,46.4,59,29.80,6.2,Variable,2.3,-,N/A,,Partly Cloudy,0,2013-02-18 17:00:00
6:30 PM,59.0,48.2,67,29.80,6.2,Variable,2.3,-,N/A,,Partly Cloudy,0,2013-02-18 17:30:00
7:00 PM,57,44,51,29.79,16,SW,8.1,,,,Partly Cloudy,230,2013-02-18 18:00:00
7:00 PM,57.2,48.2,72,29.80,6.2,WSW,8.1,-,N/A,,Scattered Clouds,240,2013-02-18 18:00:00
7:30 PM,55.4,48.2,77,29.83,6.2,WSW,4.6,-,N/A,,Scattered Clouds,240,2013-02-18 18:30:00
8:00 PM,53.6,48.2,82,29.83,6.2,Calm,Calm,-,N/A,,Scattered Clouds,0,2013-02-18 19:00:00
8:30 PM,51.8,46.4,82,29.83,6.2,Variable,1.2,-,N/A,,Scattered Clouds,0,2013-02-18 19:30:00
9:00 PM,51.8,48.2,88,29.83,6.2,Variable,1.2,-,N/A,,Scattered Clouds,0,2013-02-18 20:00:00
9:30 PM,53.6,48.2,82,29.83,6.2,Variable,1.2,-,N/A,,Scattered Clouds,0,2013-02-18 20:30:00
10:00 PM,53.6,48.2,82,29.86,6.2,Calm,Calm,-,N/A,,Scattered Clouds,0,2013-02-18 21:00:00
10:30 PM,55.4,46.4,72,29.86,6.2,SW,5.8,-,N/A,,Scattered Clouds,230,2013-02-18 21:30:00
11:00 PM,55.4,46.4,72,29.86,6.2,SW,3.5,-,N/A,,Scattered Clouds,230,2013-02-18 22:00:00